Regional Weather Roundup
Issued by NWS

Home | Current Version | Previous Version | Graphics & Text | Print | Product List | Glossary On
Versions: 1 2 3 4 5 6 7 8 9 10 11 12 13 14 15 16 17 18 19 20 21 22 23 24 25 26 27 28 29 30 31 32 33 34 35 36 37 38 39 40 41 42 43 44 45 46 47 48 49 50
000
ASUS45 KTFX 251510
RWRMT
MONTANA REGIONAL WEATHER ROUNDUP
NATIONAL WEATHER SERVICE GREAT FALLS MT
900 AM MDT THU AUG 25 2016

NOTE: "FAIR" INDICATES FEW OR NO CLOUDS BELOW 12000 FEET WITH NO
SIGNIFICANT WEATHER AND/OR OBSTRUCTIONS TO VISIBILITY.

MTZ001>007-043-251600-
WEST OF THE DIVIDE

CITY           SKY/WX    TMP DP  RH WIND       PRES   REMARKS
KALISPELL      MOSUNNY   53  42  66 N7        30.27S
MISSOULA       SUNNY     54  38  54 SE8       30.29S
BUTTE          SUNNY     42  31  64 CALM      30.34R
MULLAN PASS    SUNNY     49  32  52 SE7       30.31R
DEER LODGE       N/A     45  34  65 CALM      30.35S
EUREKA           N/A     46  36  66 CALM      30.29S
HAMILTON         N/A     52  37  58 CALM      30.29S
LIBBY            N/A     50  37  62 CALM      30.28S
PLAINS           N/A     48  41  77 CALM      30.25S
THOMPSON FALLS   N/A     47  41  80 CALM      30.29S
$$

MTZ008-052>055-251600-
SOUTHWEST MONTANA

CITY           SKY/WX    TMP DP  RH WIND       PRES   REMARKS
BOZEMAN        SUNNY     48  36  63 SE6       30.32S
DILLON         SUNNY     44  32  62 SW6       30.31S
W YELLOWSTONE  MOSUNNY   39  32  75 CALM      30.34S HAZE
ENNIS          SUNNY     48  34  57 N5        30.36S
THREE FORKS      N/A     48  48 100 CALM      30.27S
TWIN BRIDGES     N/A     45  33  62 S3        30.26F
$$

MTZ009-010-012-014-046-048-049-054-251600-
EAST SLOPES AND CENTRAL MONTANA

CITY           SKY/WX    TMP DP  RH WIND       PRES   REMARKS
CUT BANK       CLOUDY    48  40  73 NW5       30.28S
GREAT FALLS    SUNNY     53  39  59 SW3       30.29S
MALMSTROM AFB  SUNNY     51  41  69 SW6       30.29S
HELENA         SUNNY     49  36  61 CALM      30.30F
CHOTEAU          N/A     54  36  50 CALM      30.30S
CONRAD           N/A     53  45  74 CALM      30.26S
$$

MTZ011-013-016-021-045-047-050-051-251600-
NORTH CENTRAL MONTANA

CITY           SKY/WX    TMP DP  RH WIND       PRES   REMARKS
HAVRE          SUNNY     53  46  77 SW9       30.26S
LEWISTOWN      SUNNY     50  42  74 CALM      30.30F
N BAR RANCH      N/A     54  39  58 CALM      30.32S
CHINOOK          N/A     52  46  82 W5        30.25F
$$

MTZ017>020-022>027-061-062-251600-
NORTHEAST MONTANA

CITY           SKY/WX    TMP DP  RH WIND       PRES   REMARKS
GLASGOW        MOSUNNY   57  45  64 W9        30.23R
JORDAN           N/A     60  44  55 W10       30.26S
SIDNEY         SUNNY     63  48  58 W9        30.22R
WOLF POINT     SUNNY     56  48  74 W7        30.23S
POPLAR           N/A     55  46  71 W9        30.23R
SCOBEY           N/A     53  43  69 W1        30.18S
$$

MTZ028>42-056>058-251600-
SOUTHCENTRAL AND SOUTHEAST MONTANA

CITY           SKY/WX    TMP DP  RH WIND       PRES   REMARKS
BAKER          CLOUDY    54  43  66 NW10      30.27F
BILLINGS       MOSUNNY   50  41  71 CALM      30.30R
LIVINGSTON     SUNNY     45  37  73 NW7       30.31S
MILES CITY     CLOUDY    57  43  59 W10       30.28S
EKALAKA          N/A     54  41  61 NW8       30.24R
FORSYTH          N/A     55  43  62 W3        30.29S
LAUREL           N/A     51  40  66 CALM      30.26R
ROUNDUP          N/A     52  39  61 S2        30.19S
$$

REGIONAL REPORTS...DAKOTAS

CITY           SKY/WX    TMP DP  RH WIND       PRES   REMARKS
WILLISTON      SUNNY     62  47  57 W13       30.20R
MINOT          CLOUDY    60  52  74 W12       30.13R
DICKINSON      CLOUDY    52  46  80 NW12      30.22R
CROSBY           N/A     59  50  72 W8        30.19R
WATFORD CITY     N/A     59  46  63 W8        30.21S
BISMARCK       CLOUDY    56  51  84 NW13      30.16R
GRAND FORKS    CLOUDY    60  54  80 NW15      29.98R
FARGO          CLOUDY    63  53  70 W18G28    30.00F
BUFFALO SD       N/A     57  45  64 NW18G28   30.20S
RAPID CITY     CLOUDY    58  43  57 N14       30.30R
$$

REGIONAL REPORTS...WYOMING/IDAHO/WASHINGTON

CITY           SKY/WX    TMP DP  RH WIND       PRES   REMARKS
GILLETTE       PTSUNNY   52  41  66 N5        30.32R
SHERIDAN       SUNNY     55  41  59 CALM      30.32S
BUFFALO WY     CLOUDY    52  38  58 N3        30.34S
CODY           SUNNY     52  39  62 CALM      30.31F
YELLOWSTONE LA   N/A     42  36  79 VRB3      30.36F
IDAHO FALLS    MOSUNNY   52  37  56 N10       30.24R
SALMON         SUNNY     48  36  61 CALM      30.28S
BOISE          SUNNY     66  34  30 SE12      30.13R
SPOKANE        MOSUNNY   62  42  47 NE9       30.20R
$$

REGIONAL REPORTS...ALBERTA

CITY           SKY/WX    TMP DP  RH WIND       PRES   REMARKS
EDMONTON       PTSUNNY   55  52  88 NW8       30.19S
CALGARY        PTSUNNY   55  50  82 N7        30.29R
LETHBRIDGE     PTSUNNY   48  41  76 W12       30.26R
MEDICINE HAT   CLOUDY    52  46  82 SW9       30.22S
WATERTON GATE    N/A     50  39  66 SW6         N/A
CARDSTON         N/A     46  39  76 CALM        N/A
MILK RIVER       N/A     50  39  66 W10         N/A
ONEFOUR          N/A     55  46  71 W6          N/A
$$

REGIONAL REPORTS...SASKATCHEWAN

CITY           SKY/WX    TMP DP  RH WIND       PRES   REMARKS
SWIFT CURRENT  MOSUNNY   57  50  77 W13       30.17S
REGINA         MOSUNNY   55  50  82 W6        30.15S
SASKATOON      PTSUNNY   57  52  82 S3        30.13S
CYPRESS HILLS    N/A     54  43  66 NW6         N/A
VAL MARIE        N/A     54  45  71 W6          N/A
ROCKGLEN         N/A     59  46  63 NW7         N/A
$$



USA.gov is the U.S. government's official web portal to all federal, state and local government web resources and services.